sat.trackr.live / text

‹ back to catalog

STARLINK-37101

NORAD 68234 · 2026-054C

PAYLOAD ACTIVE UNKNOWN

§ Identity

Operator
Country
US
Launch date
2026-03-17
Launch site
AFETR
Launch vehicle
Mass (kg)
RCS (m²)

Purposes: comms

External: N2YO · Heavens-Above · Gunter

§ Orbital elements

Epoch: 2026-05-25T03:32:38.224032Z

Period
93.37 min
Inclination
53.1592°
Eccentricity
0.0000730
Mean motion
15.42193700 rev/d
Perigee alt
439.1 km
Apogee alt
440.1 km
Semi-major
6,817.8 km
B*
9.7207e-4
RAAN
299.9457°
Arg perigee
105.1178°
Mean anomaly
254.9908°
Rev number
1,072

§ Raw data

STARLINK-371011 68234U 26054C   26145.14766463  .00042169  00000+0  97207-3 0  99942 68234  53.1592 299.9457 0000730 105.1178 254.9908 15.42193700 10727

JSON: /api/v1/satellites/68234 · /tle

For live sub-satellite position, see the globe view (requires WebGL).

§ Visibility from observer

Set your observer location to see the next 7 days of passes ≥ 10°. The values pass through the URL so the page stays shareable.

No JS? Fill the form by hand. The geolocation button needs JavaScript.